CZ-6A DEB, 56639

Orbit data source: Space-Track

CZ-6A DEB, 56639 is space debris in SSO originally from a launch on Fri, 11 Nov 2022 UTC launched from the Taiyaun Space Center, China (TSC). Debris objects in space refer to the collection of defunct objects orbiting the Earth. Examples of debris include non-operational satellites, rocket bodies, and fragments generated from explosions, collisions, or faulty payload assembly.

Loading next visibility...
Identifier
56639, 2022-151AFP
Orbit
SSO
Country
Flag of CNCN / PRC
Related business
Manufacturer
SAST
Mission
Spacecraft
Bus & Motor
Unknown
Mass
Unknown
Launch date (UTC)
2022-11-11 (3 years ago)
Launch vehicle
Unknown
Launch site
Taiyaun Space Center, China (TSC)
Object type
Payload
Rocket body
Debris
Shape & HBR
Unknown shape, 0.1 m
Radar Cross Section
Small (<0.1 m²)

Expand to show TLE details & history
Last TLE update: 2 days ago

TLE from 2 days ago
0 CZ-6A DEB
1 56639U 22151AFP 26128.81254248  .00000257  00000-0  11901-3 0  9992
2 56639  98.7485 165.6947 0041233 130.3752 230.1040 14.28650228158714
Epoch: 2026-05-08T19:30Z
TLE epoch observation values (Epoch: 2026-05-08T19:30:03.670Z)
Latitude
-0.00005°
Longitude
6.54046°
Altitude
818.221 km
Speed
7.434 km/s
True Right ascension
11h 02m 46s
True Declination
0° 00' 00"
Sunlit
Object was in full shadow at epoch
Visualization orbit readout
Latitude
Unknown
Longitude
Unknown
Altitude
Unknown
Speed
Unknown
Apparent Right ascension
Unknown
Apparent Declination
Unknown
Sunlit
N/A
Visualization observer readout
Local Sidereal Time
04:36:44
Azimuth
Unknown
Elevation
Unknown
Doppler factor
Unknown
Orbital elements
Apogee altitude
822.965 km
Perigee altitude
763.825 km
Semi-major axis
7,171.532 km
Eccentricity
0.00412
Inclination
98.7485°
RAAN
165.6947°
Arg. of periapsis
130.3752°
True anomaly
229.74269°
Mean anomaly
230.104°
Eccentric anomaly
229.92323°
Mean motion
3.57376 °/min
Orbital period
100.73 mins
BSTAR
0.00011901
Loading maneuver chart data...
Computing Atmospheric mass density...
Loading historical data...
Loading historical data...
Loading historical data...
Loading historical data...
Loading historical data...
Loading historical data...
Loading historical data...

Documentation

Showing up to 5 results
|